Tracking 20242 objects as of 24-Jan-2020
HD Live streaming from Space Station
objects crossing your sky now

COSMOS 2251 DEB

Track COSMOS 2251 DEB now!
10-day predictions


NORAD ID: 35291
Int'l Code: 1993-036AJV
Perigee: 523.0 km
Apogee: 656.4 km
Inclination: 74.0 °
Period: 96.3 minutes
Semi major axis: 6960 km
RCS: 0.0106 m2 (small)
Launch date: June 16, 1993
Source: Commonwealth of Independent States (former USSR) (CIS)
Launch site: PLESETSK MISSILE AND SPACE COMPLEX (PKMTR)

Note: This is SATELLITE DEBRIS
aabbcc
Your satellite tracking list
Your tracking list is empty




NASA's NSSDC Master Catalog

Two Line Element Set (TLE):
1 35291U 93036AJV 20023.49240097 +.00000995 +00000-0 +87048-4 0  9997
2 35291 074.0412 044.8340 0095819 316.3154 196.2228 14.94926777582166
Source of the keplerian elements: AFSPC